カタログに戻る

OPS 4682 DEB

運用中PO
NORAD 38424·DEBRIS·🇺🇸 United States

打ち上げ Apr 3, 1965 から Vandenberg Space Force Base

Loading…

次のパス (今後24時間)

TLE

最新Source: Space-Track

元期: Sep 13, 2026, 18:19 UTC

1 38424U 65027ED  26256.76363108  .00000997  00000-0  31025-2 0  9994
2 38424  90.2576   9.2012 0024659 275.4145  84.4166 13.04009366323379

AllMySatでOPS 4682 DEBをリアルタイム追跡

Download on the App Store